| time (UTC) | temp F | wind direction | speed MPH | gust MPH | rain 1hr in | rain 24hr in | rain mn in | humidity % | barometer mb |
| 20260507061244 | 54 | 54 | 1.0 | 2.0 | 0.00 | 0.00 | 0.00 | 74 | 1011.5 |
| 20260507060743 | 54 | 57 | 1.0 | 6.0 | 0.00 | 0.00 | 0.00 | 74 | 1011.4 |
| 20260507060239 | 54 | 9 | 4.0 | 5.0 | 0.00 | 0.00 | 0.00 | 76 | 1011.6 |
| 20260507055735 | 54 | 57 | 0.0 | 2.0 | 0.00 | 0.00 | 0.00 | 76 | 1011.5 |
| 20260507055230 | 54 | 56 | 1.0 | 5.0 | 0.00 | 0.00 | 0.00 | 76 | 1011.3 |
| 20260507054727 | 54 | 31 | 3.0 | 8.0 | 0.00 | 0.00 | 0.00 | 76 | 1011.2 |
| 20260507054224 | 54 | 54 | 1.0 | 2.0 | 0.00 | 0.00 | 0.00 | 78 | 1011.3 |
| 20260507053721 | 54 | 45 | 2.0 | 7.0 | 0.00 | 0.00 | 0.00 | 79 | 1011.3 |
| 20260507053219 | 54 | 54 | 3.0 | 3.0 | 0.00 | 0.00 | 0.00 | 81 | 1011.3 |
| 20260507052718 | 54 | 47 | 1.0 | 3.0 | 0.00 | 0.00 | 0.00 | 79 | 1011.2 |
| 20260507052213 | 54 | 58 | 0.0 | 3.0 | 0.00 | 0.00 | 0.00 | 78 | 1011.3 |
| 20260507051712 | 54 | 59 | 1.0 | 2.0 | 0.00 | 0.00 | 0.00 | 79 | 1011.4 |
| 20260507051208 | 54 | 54 | 0.0 | 1.0 | 0.00 | 0.00 | 0.00 | 78 | 1011.3 |
| 20260507050705 | 54 | 46 | 2.0 | 3.0 | 0.00 | 0.00 | 0.00 | 79 | 1011.5 |
| 20260507050202 | 54 | 59 | 0.0 | 3.0 | 0.00 | 0.00 | 0.00 | 78 | 1011.5 |
| 20260507045659 | 55 | 56 | 1.0 | 2.0 | 0.00 | 0.00 | 0.00 | 77 | 1011.1 |
| 20260507045156 | 55 | 48 | 2.0 | 3.0 | 0.00 | 0.00 | 0.00 | 77 | 1011.3 |
| 20260507044652 | 55 | 58 | 0.0 | 1.0 | 0.00 | 0.00 | 0.00 | 78 | 1011.3 |
| 20260507044149 | 55 | 53 | 2.0 | 3.0 | 0.00 | 0.00 | 0.00 | 77 | 1011.2 |
| 20260507043645 | 55 | 44 | 2.0 | 5.0 | 0.00 | 0.00 | 0.00 | 79 | 1011.7 |
| 20260507043142 | 55 | 55 | 1.0 | 2.0 | 0.00 | 0.00 | 0.00 | 80 | 1011.6 |
| 20260507042638 | 55 | 59 | 1.0 | 2.0 | 0.00 | 0.00 | 0.00 | 76 | 1011.5 |
| 20260507042134 | 55 | 54 | 2.0 | 7.0 | 0.00 | 0.00 | 0.00 | 76 | 1011.3 |
| 20260507041631 | 55 | 46 | 3.0 | 6.0 | 0.00 | 0.00 | 0.00 | 75 | 1011.2 |
| 20260507041127 | 56 | 58 | 1.0 | 6.0 | 0.00 | 0.00 | 0.00 | 76 | 1011.3 |
| 20260507040624 | 56 | 356 | 4.0 | 6.0 | 0.00 | 0.00 | 0.00 | 74 | 1011.4 |
| 20260507040121 | 56 | 29 | 2.0 | 6.0 | 0.00 | 0.16 | 0.16 | 74 | 1011.4 |
| 20260507035616 | 56 | 57 | 1.0 | 2.0 | 0.00 | 0.16 | 0.16 | 76 | 1011.4 |
| 20260507035113 | 56 | 56 | 1.0 | 3.0 | 0.00 | 0.16 | 0.16 | 75 | 1011.2 |
| 20260507034610 | 56 | 56 | 1.0 | 8.0 | 0.00 | 0.16 | 0.16 | 74 | 1011.4 |
| 20260507034107 | 56 | 37 | 1.0 | 3.0 | 0.00 | 0.16 | 0.16 | 78 | 1011.0 |
| 20260507033606 | 56 | 45 | 2.0 | 3.0 | 0.00 | 0.16 | 0.16 | 79 | 1011.5 |
| 20260507033102 | 56 | 22 | 2.0 | 3.0 | 0.00 | 0.16 | 0.16 | 79 | 1010.9 |
| 20260507032600 | 56 | 55 | 2.0 | 3.0 | 0.00 | 0.16 | 0.16 | 80 | 1011.2 |
| 20260507032056 | 56 | 36 | 1.0 | 3.0 | 0.00 | 0.16 | 0.16 | 80 | 1010.9 |
| 20260507031552 | 56 | 50 | 1.0 | 6.0 | 0.00 | 0.16 | 0.16 | 79 | 1010.6 |
| 20260507031049 | 57 | 56 | 1.0 | 5.0 | 0.00 | 0.16 | 0.16 | 78 | 1010.6 |
| 20260507030545 | 57 | 59 | 0.0 | 7.0 | 0.00 | 0.16 | 0.16 | 78 | 1010.7 |
| 20260507030044 | 56 | 50 | 2.0 | 2.0 | 0.00 | 0.16 | 0.16 | 79 | 1011.0 |
| 20260507025540 | 57 | 33 | 3.0 | 3.0 | 0.00 | 0.16 | 0.16 | 80 | 1010.8 |
| 20260507025038 | 57 | 61 | 3.0 | 7.0 | 0.00 | 0.16 | 0.16 | 79 | 1010.9 |
| 20260507024536 | 57 | 43 | 1.0 | 5.0 | 0.00 | 0.16 | 0.16 | 78 | 1010.7 |
| 20260507024032 | 57 | 49 | 3.0 | 3.0 | 0.00 | 0.16 | 0.16 | 78 | 1010.9 |
| 20260507023528 | 57 | 356 | 4.0 | 9.0 | 0.00 | 0.16 | 0.16 | 79 | 1010.9 |
| 20260507023026 | 57 | 50 | 1.0 | 7.0 | 0.00 | 0.16 | 0.16 | 79 | 1011.0 |
| 20260507022522 | 57 | 56 | 0.0 | 2.0 | 0.00 | 0.16 | 0.16 | 80 | 1010.7 |
| 20260507022018 | 57 | 59 | 2.0 | 3.0 | 0.00 | 0.16 | 0.16 | 82 | 1010.8 |
| 20260507021514 | 57 | 60 | 0.0 | 0.0 | 0.00 | 0.16 | 0.16 | 82 | 1010.6 |
| 20260507021011 | 57 | 47 | 1.0 | 2.0 | 0.00 | 0.16 | 0.16 | 82 | 1010.6 |
| 20260507020508 | 58 | 57 | 0.0 | 2.0 | 0.00 | 0.16 | 0.16 | 82 | 1010.6 |
| 20260507020005 | 58 | 57 | 0.0 | 2.0 | 0.00 | 0.16 | 0.16 | 81 | 1010.7 |
| 20260507015503 | 58 | 56 | 1.0 | 2.0 | 0.00 | 0.16 | 0.16 | 81 | 1010.7 |
| 20260507015000 | 58 | 58 | 1.0 | 3.0 | 0.00 | 0.16 | 0.16 | 81 | 1010.8 |
| 20260507014456 | 58 | 50 | 1.0 | 3.0 | 0.00 | 0.16 | 0.16 | 81 | 1010.8 |
| 20260507013952 | 59 | 57 | 2.0 | 3.0 | 0.00 | 0.16 | 0.16 | 80 | 1010.8 |
| 20260507013449 | 59 | 60 | 1.0 | 1.0 | 0.00 | 0.16 | 0.16 | 80 | 1010.8 |
| 20260507012947 | 59 | 7 | 3.0 | 5.0 | 0.00 | 0.16 | 0.16 | 79 | 1010.9 |
| 20260507012443 | 59 | 12 | 3.0 | 3.0 | 0.00 | 0.16 | 0.16 | 80 | 1010.8 |
| 20260507011940 | 59 | 54 | 1.0 | 2.0 | 0.00 | 0.16 | 0.16 | 81 | 1010.6 |
| 20260507011437 | 59 | 53 | 2.0 | 3.0 | 0.00 | 0.16 | 0.16 | 81 | 1011.0 |
| 20260507010932 | 59 | 28 | 2.0 | 3.0 | 0.00 | 0.16 | 0.16 | 81 | 1010.8 |
| 20260507010427 | 59 | 58 | 1.0 | 2.0 | 0.00 | 0.16 | 0.16 | 81 | 1010.5 |
| 20260507005924 | 60 | 53 | 2.0 | 5.0 | 0.00 | 0.16 | 0.16 | 81 | 1010.5 |
| 20260507005421 | 59 | 45 | 2.0 | 5.0 | 0.00 | 0.16 | 0.16 | 81 | 1010.3 |
| 20260507004917 | 60 | 53 | 1.0 | 3.0 | 0.00 | 0.16 | 0.16 | 81 | 1010.5 |
| 20260507004414 | 60 | 60 | 0.0 | 1.0 | 0.00 | 0.16 | 0.16 | 81 | 1010.2 |
| 20260507003912 | 60 | 57 | 1.0 | 3.0 | 0.00 | 0.16 | 0.16 | 81 | 1010.2 |
| 20260507003407 | 60 | 59 | 3.0 | 5.0 | 0.00 | 0.16 | 0.16 | 81 | 1010.4 |
| 20260507002902 | 60 | 54 | 0.0 | 1.0 | 0.00 | 0.16 | 0.16 | 84 | 1010.2 |
| 20260507002358 | 60 | 54 | 1.0 | 1.0 | 0.00 | 0.16 | 0.16 | 84 | 1010.0 |
| 20260507001856 | 60 | 49 | 2.0 | 5.0 | 0.00 | 0.16 | 0.16 | 82 | 1009.8 |
| 20260507001352 | 60 | 62 | 0.0 | 2.0 | 0.00 | 0.16 | 0.16 | 84 | 1009.7 |
| 20260507000849 | 60 | 57 | 0.0 | 2.0 | 0.00 | 0.16 | 0.16 | 83 | 1009.5 |
| 20260507000344 | 60 | 59 | 1.0 | 2.0 | 0.00 | 0.16 | 0.16 | 83 | 1009.6 |
| 20260506235841 | 61 | 49 | 1.0 | 2.0 | 0.00 | 0.16 | 0.16 | 83 | 1009.2 |
| 20260506235339 | 61 | 51 | 1.0 | 5.0 | 0.00 | 0.16 | 0.16 | 83 | 1009.0 |
| 20260506234834 | 61 | 50 | 3.0 | 5.0 | 0.00 | 0.16 | 0.16 | 83 | 1009.0 |
| 20260506234332 | 61 | 46 | 2.0 | 3.0 | 0.00 | 0.16 | 0.16 | 84 | 1008.8 |
| 20260506233830 | 62 | 56 | 2.0 | 3.0 | 0.00 | 0.16 | 0.16 | 85 | 1008.8 |
| 20260506233325 | 62 | 50 | 3.0 | 3.0 | 0.00 | 0.16 | 0.16 | 85 | 1008.5 |
| 20260506232823 | 62 | 56 | 1.0 | 2.0 | 0.00 | 0.16 | 0.16 | 85 | 1008.5 |
| 20260506232318 | 62 | 55 | 1.0 | 3.0 | 0.00 | 0.16 | 0.16 | 86 | 1008.4 |
| 20260506231815 | 62 | 61 | 1.0 | 3.0 | 0.00 | 0.16 | 0.16 | 86 | 1008.5 |
| 20260506231313 | 63 | 58 | 1.0 | 5.0 | 0.00 | 0.16 | 0.16 | 86 | 1008.5 |
| 20260506230810 | 63 | 59 | 2.0 | 2.0 | 0.00 | 0.16 | 0.16 | 86 | 1008.5 |
| 20260506230307 | 63 | 62 | 0.0 | 2.0 | 0.00 | 0.16 | 0.16 | 86 | 1008.2 |
| 20260506225803 | 63 | 47 | 2.0 | 5.0 | 0.00 | 0.16 | 0.16 | 86 | 1008.4 |
| 20260506225300 | 64 | 39 | 2.0 | 8.0 | 0.00 | 0.16 | 0.16 | 86 | 1008.3 |
| 20260506224756 | 64 | 43 | 1.0 | 3.0 | 0.00 | 0.16 | 0.16 | 87 | 1008.2 |
| 20260506224254 | 64 | 58 | 0.0 | 3.0 | 0.00 | 0.16 | 0.16 | 89 | 1008.1 |
| 20260506223749 | 64 | 26 | 2.0 | 7.0 | 0.00 | 0.16 | 0.16 | 92 | 1008.1 |
| 20260506223240 | 65 | 55 | 0.0 | 1.0 | 0.00 | 0.16 | 0.16 | 93 | 1008.2 |
| 20260506222737 | 65 | 55 | 0.0 | 1.0 | 0.00 | 0.16 | 0.16 | 93 | 1007.9 |
| 20260506222232 | 65 | 56 | 0.0 | 1.0 | 0.00 | 0.16 | 0.16 | 93 | 1008.2 |
| 20260506221731 | 65 | 56 | 0.0 | 1.0 | 0.00 | 0.16 | 0.16 | 93 | 1007.7 |
| 20260506221229 | 65 | 56 | 0.0 | 1.0 | 0.00 | 0.16 | 0.16 | 92 | 1007.8 |
| 20260506220725 | 65 | 58 | 0.0 | 0.0 | 0.00 | 0.16 | 0.16 | 92 | 1007.6 |
| 20260506220220 | 65 | 58 | 0.0 | 1.0 | 0.00 | 0.16 | 0.16 | 92 | 1007.5 |
| 20260506215717 | 66 | 60 | 0.0 | 0.0 | 0.00 | 0.16 | 0.16 | 91 | 1007.6 |
| 20260506215213 | 66 | 60 | 0.0 | 0.0 | 0.00 | 0.16 | 0.16 | 91 | 1007.3 |
| 20260506214710 | 66 | 63 | 0.0 | 0.0 | 0.00 | 0.16 | 0.16 | 90 | 1007.5 |
| 20260506214207 | 66 | 63 | 0.0 | 5.0 | 0.00 | 0.16 | 0.16 | 89 | 1007.3 |
| 20260506213705 | 66 | 67 | 0.0 | 1.0 | 0.00 | 0.16 | 0.16 | 89 | 1007.1 |
| 20260506213202 | 67 | 76 | 0.0 | 1.0 | 0.00 | 0.16 | 0.16 | 89 | 1007.2 |
| 20260506212659 | 66 | 57 | 0.0 | 0.0 | 0.00 | 0.16 | 0.16 | 89 | 1007.1 |
| 20260506212154 | 67 | 69 | 1.0 | 2.0 | 0.00 | 0.16 | 0.16 | 89 | 1007.1 |
| 20260506211650 | 66 | 58 | 0.0 | 0.0 | 0.00 | 0.16 | 0.16 | 90 | 1006.9 |
| 20260506211147 | 66 | 58 | 0.0 | 0.0 | 0.00 | 0.16 | 0.16 | 91 | 1006.8 |
| 20260506210644 | 66 | 58 | 0.0 | 0.0 | 0.00 | 0.16 | 0.16 | 91 | 1006.7 |
| 20260506210140 | 66 | 58 | 0.0 | 0.0 | 0.00 | 0.16 | 0.16 | 90 | 1006.9 |
| 20260506205638 | 66 | 58 | 0.0 | 0.0 | 0.00 | 0.16 | 0.16 | 90 | 1006.8 |
| 20260506205132 | 66 | 60 | 0.0 | 0.0 | 0.00 | 0.16 | 0.16 | 91 | 1007.0 |
| 20260506204631 | 66 | 61 | 0.0 | 1.0 | 0.00 | 0.16 | 0.16 | 91 | 1006.8 |
| 20260506204127 | 66 | 64 | 0.0 | 1.0 | 0.00 | 0.16 | 0.16 | 91 | 1006.8 |
| 20260506203626 | 66 | 55 | 0.0 | 0.0 | 0.00 | 0.16 | 0.16 | 91 | 1006.9 |
| 20260506203122 | 66 | 55 | 0.0 | 0.0 | 0.00 | 0.16 | 0.16 | 91 | 1006.9 |
| 20260506202620 | 66 | 87 | 0.0 | 0.0 | 0.00 | 0.16 | 0.16 | 91 | 1006.7 |
| 20260506202116 | 66 | 59 | 0.0 | 0.0 | 0.00 | 0.16 | 0.16 | 91 | 1006.8 |
| 20260506201613 | 66 | 59 | 0.0 | 0.0 | 0.00 | 0.16 | 0.16 | 90 | 1006.8 |
| 20260506201110 | 66 | 60 | 0.0 | 0.0 | 0.00 | 0.16 | 0.16 | 90 | 1006.7 |
| 20260506200606 | 66 | 82 | 3.0 | 3.0 | 0.00 | 0.16 | 0.16 | 90 | 1006.7 |
| 20260506195559 | 65 | 55 | 0.0 | 0.0 | 0.00 | 0.16 | 0.16 | 94 | 1006.9 |
| 20260506195056 | 66 | 56 | 0.0 | 1.0 | 0.00 | 0.16 | 0.16 | 96 | 1006.8 |
| 20260506194554 | 65 | 57 | 0.0 | 0.0 | 0.00 | 0.16 | 0.16 | 97 | 1007.0 |
| 20260506194049 | 64 | 56 | 0.0 | 0.0 | 0.00 | 0.16 | 0.16 | 98 | 1007.1 |
| 20260506193548 | 64 | 56 | 0.0 | 0.0 | 0.00 | 0.16 | 0.16 | 98 | 1006.8 |
| 20260506193045 | 63 | 56 | 0.0 | 1.0 | 0.00 | 0.16 | 0.16 | 98 | 1007.2 |
| 20260506192541 | 64 | 58 | 0.0 | 0.0 | 0.00 | 0.16 | 0.16 | 99 | 1007.1 |
| 20260506192037 | 63 | 58 | 0.0 | 0.0 | 0.00 | 0.16 | 0.16 | 99 | 1007.2 |
| 20260506191534 | 63 | 58 | 0.0 | 0.0 | 0.00 | 0.16 | 0.16 | 99 | 1007.0 |
| 20260506191030 | 62 | 57 | 0.0 | 1.0 | 0.00 | 0.16 | 0.16 | 99 | 1007.1 |
| 20260506190527 | 63 | 59 | 1.0 | 1.0 | 0.00 | 0.16 | 0.16 | 99 | 1007.3 |
| 20260506190024 | 63 | 60 | 0.0 | 0.0 | 0.00 | 0.16 | 0.16 | 99 | 1007.1 |
| 20260506185521 | 63 | 60 | 0.0 | 0.0 | 0.00 | 0.16 | 0.16 | 99 | 1007.3 |
| 20260506185018 | 63 | 60 | 0.0 | 1.0 | 0.00 | 0.16 | 0.16 | 99 | 1007.3 |
| 20260506184515 | 62 | 82 | 0.0 | 1.0 | 0.00 | 0.16 | 0.16 | 99 | 1007.3 |
| 20260506184013 | 62 | 59 | 0.0 | 1.0 | 0.00 | 0.16 | 0.16 | 99 | 1007.5 |
| 20260506183508 | 62 | 68 | 0.0 | 3.0 | 0.00 | 0.16 | 0.16 | 99 | 1007.5 |
| 20260506183006 | 62 | 66 | 0.0 | 0.0 | 0.00 | 0.16 | 0.16 | 99 | 1007.3 |
| 20260506182502 | 62 | 62 | 0.0 | 1.0 | 0.00 | 0.16 | 0.16 | 99 | 1007.6 |
| 20260506181959 | 62 | 67 | 0.0 | 2.0 | 0.00 | 0.16 | 0.16 | 99 | 1007.6 |
| 20260506181457 | 62 | 63 | 0.0 | 0.0 | 0.00 | 0.16 | 0.16 | 99 | 1007.6 |
| 20260506180954 | 62 | 62 | 0.0 | 1.0 | 0.00 | 0.16 | 0.16 | 99 | 1007.7 |
| 20260506180450 | 62 | 65 | 0.0 | 0.0 | 0.00 | 0.16 | 0.16 | 99 | 1007.7 |
| 20260506175947 | 61 | 92 | 2.0 | 2.0 | 0.00 | 0.16 | 0.16 | 99 | 1007.8 |
| 20260506175444 | 61 | 73 | 1.0 | 1.0 | 0.00 | 0.16 | 0.16 | 99 | 1007.6 |
| 20260506174940 | 62 | 62 | 0.0 | 1.0 | 0.00 | 0.16 | 0.16 | 99 | 1007.8 |
| 20260506174438 | 61 | 84 | 1.0 | 7.0 | 0.00 | 0.16 | 0.16 | 99 | 1007.6 |
| 20260506173935 | 61 | 78 | 1.0 | 1.0 | 0.00 | 0.16 | 0.16 | 99 | 1007.6 |
| 20260506173432 | 61 | 61 | 0.0 | 2.0 | 0.00 | 0.16 | 0.16 | 99 | 1007.6 |
| 20260506172929 | 61 | 61 | 0.0 | 2.0 | 0.00 | 0.16 | 0.16 | 99 | 1007.8 |
| 20260506172426 | 61 | 59 | 0.0 | 1.0 | 0.00 | 0.16 | 0.16 | 99 | 1007.5 |
| 20260506171923 | 61 | 69 | 0.0 | 1.0 | 0.00 | 0.16 | 0.16 | 99 | 1007.8 |
| 20260506171420 | 61 | 76 | 1.0 | 2.0 | 0.00 | 0.16 | 0.16 | 99 | 1007.7 |
| 20260506170918 | 61 | 60 | 0.0 | 0.0 | 0.00 | 0.16 | 0.16 | 99 | 1007.7 |
| 20260506170413 | 61 | 32 | 2.0 | 2.0 | 0.00 | 0.16 | 0.16 | 99 | 1007.6 |
| 20260506165907 | 61 | 59 | 0.0 | 2.0 | 0.00 | 0.16 | 0.16 | 99 | 1007.7 |
| 20260506165405 | 61 | 89 | 3.0 | 3.0 | 0.00 | 0.16 | 0.16 | 99 | 1007.6 |
| 20260506164901 | 61 | 73 | 2.0 | 2.0 | 0.00 | 0.16 | 0.16 | 99 | 1007.5 |
| 20260506164357 | 61 | 147 | 1.0 | 2.0 | 0.00 | 0.16 | 0.16 | 99 | 1007.6 |
| 20260506163855 | 61 | 59 | 1.0 | 2.0 | 0.00 | 0.16 | 0.16 | 99 | 1007.7 |
| 20260506163349 | 61 | 62 | 0.0 | 1.0 | 0.00 | 0.16 | 0.16 | 99 | 1007.7 |
| 20260506162844 | 60 | 82 | 0.0 | 1.0 | 0.00 | 0.16 | 0.16 | 99 | 1007.8 |
| 20260506162343 | 60 | 44 | 1.0 | 2.0 | 0.00 | 0.16 | 0.16 | 99 | 1007.9 |
| 20260506161835 | 60 | 84 | 0.0 | 3.0 | 0.00 | 0.16 | 0.16 | 99 | 1007.7 |
| 20260506161332 | 60 | 39 | 1.0 | 2.0 | 0.00 | 0.16 | 0.16 | 99 | 1007.7 |
| 20260506160829 | 61 | 106 | 3.0 | 5.0 | 0.00 | 0.16 | 0.16 | 99 | 1007.7 |
| 20260506160325 | 60 | 74 | 0.0 | 1.0 | 0.00 | 0.16 | 0.16 | 99 | 1007.7 |
| 20260506155824 | 60 | 70 | 1.0 | 2.0 | 0.00 | 0.16 | 0.16 | 99 | 1007.7 |
| 20260506155320 | 60 | 62 | 1.0 | 3.0 | 0.00 | 0.16 | 0.16 | 99 | 1007.7 |
| 20260506153433 | 60 | 63 | 0.0 | 0.0 | 0.00 | 0.16 | 0.16 | 99 | 1007.6 |
| 20260506152931 | 60 | 59 | 0.0 | 2.0 | 0.00 | 0.16 | 0.16 | 99 | 1007.6 |
| 20260506152427 | 60 | 63 | 0.0 | 2.0 | 0.00 | 0.16 | 0.16 | 99 | 1007.7 |
| 20260506151926 | 60 | 61 | 0.0 | 0.0 | 0.00 | 0.16 | 0.16 | 99 | 1007.6 |
| 20260506151423 | 60 | 61 | 0.0 | 1.0 | 0.00 | 0.16 | 0.16 | 99 | 1007.7 |
| 20260506150921 | 60 | 64 | 0.0 | 2.0 | 0.00 | 0.16 | 0.16 | 99 | 1007.7 |
| 20260506150416 | 60 | 62 | 0.0 | 0.0 | 0.00 | 0.16 | 0.16 | 99 | 1007.7 |
| 20260506145914 | 60 | 78 | 2.0 | 2.0 | 0.00 | 0.16 | 0.16 | 99 | 1007.7 |
| 20260506145409 | 60 | 64 | 0.0 | 2.0 | 0.00 | 0.16 | 0.16 | 99 | 1007.9 |
| 20260506144907 | 60 | 59 | 0.0 | 1.0 | 0.07 | 0.16 | 0.16 | 99 | 1008.1 |
| 20260506144403 | 60 | 67 | 0.0 | 6.0 | 0.07 | 0.16 | 0.16 | 99 | 1008.0 |
| 20260506143902 | 60 | 63 | 0.0 | 0.0 | 0.12 | 0.15 | 0.15 | 99 | 1008.3 |
| 20260506143358 | 60 | 90 | 2.0 | 2.0 | 0.07 | 0.14 | 0.14 | 98 | 1008.5 |
| 20260506142857 | 60 | 56 | 0.0 | 1.0 | 0.00 | 0.13 | 0.13 | 98 | 1008.5 |
| 20260506142355 | 60 | 64 | 0.0 | 2.0 | 0.07 | 0.13 | 0.13 | 98 | 1008.7 |
| 20260506141852 | 60 | 9 | 2.0 | 7.0 | 0.19 | 0.13 | 0.13 | 98 | 1008.5 |
| 20260506141350 | 60 | 169 | 2.0 | 6.0 | 0.07 | 0.11 | 0.11 | 98 | 1008.3 |
| 20260506140848 | 60 | 64 | 0.0 | 0.0 | 0.00 | 0.10 | 0.10 | 98 | 1008.4 |
| 20260506140345 | 60 | 76 | 1.0 | 2.0 | 0.00 | 0.10 | 0.10 | 97 | 1008.1 |
| 20260506135842 | 60 | 85 | 0.0 | 0.0 | 0.00 | 0.10 | 0.10 | 97 | 1008.0 |
| 20260506135338 | 60 | 67 | 1.0 | 2.0 | 0.05 | 0.10 | 0.10 | 97 | 1007.8 |
| 20260506134835 | 60 | 108 | 3.0 | 5.0 | 0.12 | 0.10 | 0.10 | 97 | 1008.1 |
| 20260506134331 | 60 | 59 | 0.0 | 1.0 | 0.12 | 0.09 | 0.09 | 97 | 1008.1 |
| 20260506133829 | 60 | 69 | 1.0 | 2.0 | 0.17 | 0.08 | 0.08 | 97 | 1008.0 |
| 20260506133325 | 60 | 74 | 1.0 | 3.0 | 0.19 | 0.07 | 0.07 | 96 | 1008.2 |
| 20260506132822 | 60 | 105 | 3.0 | 3.0 | 0.12 | 0.05 | 0.05 | 96 | 1008.1 |
| 20260506132319 | 60 | 75 | 2.0 | 2.0 | 0.12 | 0.04 | 0.04 | 96 | 1008.1 |
| 20260506131817 | 61 | 107 | 2.0 | 2.0 | 0.12 | 0.03 | 0.03 | 96 | 1008.1 |
| 20260506131313 | 61 | 66 | 0.0 | 2.0 | 0.05 | 0.02 | 0.02 | 95 | 1008.3 |
| 20260506130810 | 61 | 69 | 0.0 | 0.0 | 0.00 | 0.01 | 0.01 | 95 | 1008.3 |
| 20260506130306 | 61 | 70 | 1.0 | 3.0 | 0.00 | 0.01 | 0.01 | 94 | 1008.2 |
| 20260506125805 | 61 | 106 | 1.0 | 2.0 | 0.00 | 0.01 | 0.01 | 94 | 1008.1 |
| 20260506125305 | 61 | 59 | 1.0 | 3.0 | 0.00 | 0.01 | 0.01 | 94 | 1008.1 |
| 20260506124801 | 61 | 61 | 0.0 | 1.0 | 0.00 | 0.01 | 0.01 | 94 | 1008.0 |
| 20260506124258 | 61 | 63 | 0.0 | 1.0 | 0.00 | 0.01 | 0.01 | 94 | 1008.2 |
| 20260506123755 | 61 | 61 | 0.0 | 1.0 | 0.00 | 0.01 | 0.01 | 94 | 1008.3 |
| 20260506123254 | 61 | 29 | 0.0 | 1.0 | 0.00 | 0.01 | 0.01 | 93 | 1008.2 |
| 20260506122750 | 60 | 59 | 0.0 | 3.0 | 0.00 | 0.01 | 0.01 | 93 | 1008.3 |
| 20260506122247 | 60 | 141 | 2.0 | 5.0 | 0.00 | 0.01 | 0.01 | 93 | 1008.5 |
| 20260506121745 | 61 | 66 | 0.0 | 1.0 | 0.07 | 0.01 | 0.01 | 93 | 1008.6 |
| 20260506121242 | 61 | 59 | 0.0 | 1.0 | 0.07 | 0.01 | 0.01 | 92 | 1008.5 |
| 20260506120739 | 61 | 93 | 1.0 | 2.0 | 0.00 | 0.00 | 0.00 | 92 | 1008.5 |
| 20260506120237 | 61 | 62 | 0.0 | 1.0 | 0.00 | 0.00 | 0.00 | 91 | 1008.7 |
| 20260506115734 | 62 | 79 | 2.0 | 2.0 | 0.00 | 0.00 | 0.00 | 90 | 1008.7 |
| 20260506115233 | 62 | 124 | 5.0 | 7.0 | 0.00 | 0.00 | 0.00 | 89 | 1008.5 |
| 20260506114730 | 62 | 68 | 0.0 | 2.0 | 0.00 | 0.00 | 0.00 | 87 | 1008.5 |
| 20260506114227 | 62 | 63 | 0.0 | 0.0 | 0.00 | 0.00 | 0.00 | 86 | 1008.4 |
| 20260506113726 | 63 | 58 | 0.0 | 0.0 | 0.00 | 0.00 | 0.00 | 84 | 1008.3 |
| 20260506113223 | 63 | 58 | 0.0 | 0.0 | 0.00 | 0.00 | 0.00 | 83 | 1008.3 |
| 20260506112719 | 63 | 58 | 0.0 | 1.0 | 0.00 | 0.00 | 0.00 | 82 | 1008.2 |
| 20260506112217 | 63 | 53 | 1.0 | 2.0 | 0.00 | 0.00 | 0.00 | 80 | 1008.1 |
| 20260506111714 | 64 | 66 | 0.0 | 0.0 | 0.00 | 0.00 | 0.00 | 80 | 1008.2 |
| 20260506111213 | 64 | 68 | 0.0 | 1.0 | 0.00 | 0.00 | 0.00 | 79 | 1008.0 |
| 20260506110709 | 65 | 69 | 0.0 | 0.0 | 0.00 | 0.00 | 0.00 | 77 | 1008.1 |
| 20260506110207 | 65 | 68 | 0.0 | 0.0 | 0.00 | 0.00 | 0.00 | 75 | 1007.7 |
| 20260506105703 | 65 | 71 | 0.0 | 0.0 | 0.00 | 0.00 | 0.00 | 73 | 1007.9 |
| 20260506105200 | 66 | 62 | 0.0 | 0.0 | 0.00 | 0.00 | 0.00 | 71 | 1007.9 |
| 20260506104658 | 66 | 70 | 0.0 | 2.0 | 0.00 | 0.00 | 0.00 | 69 | 1007.8 |
| 20260506104155 | 66 | 47 | 0.0 | 3.0 | 0.00 | 0.00 | 0.00 | 67 | 1007.5 |
| 20260506103652 | 67 | 57 | 1.0 | 2.0 | 0.00 | 0.00 | 0.00 | 67 | 1007.6 |
| 20260506103149 | 67 | 73 | 0.0 | 2.0 | 0.00 | 0.00 | 0.00 | 65 | 1007.1 |
| 20260506102647 | 67 | 79 | 1.0 | 2.0 | 0.00 | 0.00 | 0.00 | 65 | 1007.5 |
| 20260506102144 | 67 | 72 | 0.0 | 2.0 | 0.00 | 0.00 | 0.00 | 65 | 1007.2 |
| 20260506101641 | 67 | 113 | 2.0 | 2.0 | 0.00 | 0.00 | 0.00 | 65 | 1007.1 |
| 20260506101138 | 67 | 58 | 0.0 | 2.0 | 0.00 | 0.00 | 0.00 | 65 | 1007.3 |
| 20260506100637 | 67 | 56 | 0.0 | 0.0 | 0.00 | 0.00 | 0.00 | 66 | 1007.1 |
| 20260506100134 | 67 | 72 | 0.0 | 1.0 | 0.00 | 0.00 | 0.00 | 65 | 1007.2 |
| 20260506095633 | 67 | 77 | 3.0 | 5.0 | 0.00 | 0.00 | 0.00 | 64 | 1007.2 |
| 20260506095129 | 67 | 55 | 1.0 | 2.0 | 0.00 | 0.00 | 0.00 | 64 | 1006.9 |
| 20260506094626 | 67 | 67 | 0.0 | 1.0 | 0.00 | 0.00 | 0.00 | 63 | 1006.7 |
| 20260506094124 | 67 | 57 | 0.0 | 2.0 | 0.00 | 0.00 | 0.00 | 64 | 1006.9 |
| 20260506093622 | 67 | 58 | 1.0 | 1.0 | 0.00 | 0.00 | 0.00 | 64 | 1006.9 |
| 20260506093119 | 67 | 71 | 0.0 | 2.0 | 0.00 | 0.00 | 0.00 | 64 | 1007.1 |
| 20260506092617 | 68 | 57 | 0.0 | 1.0 | 0.00 | 0.00 | 0.00 | 62 | 1007.0 |
| 20260506092114 | 68 | 66 | 0.0 | 3.0 | 0.00 | 0.00 | 0.00 | 62 | 1007.1 |
| 20260506091612 | 68 | 118 | 2.0 | 3.0 | 0.00 | 0.00 | 0.00 | 62 | 1007.2 |
| 20260506091109 | 68 | 59 | 0.0 | 5.0 | 0.00 | 0.00 | 0.00 | 62 | 1007.0 |
| 20260506090607 | 68 | 57 | 1.0 | 1.0 | 0.00 | 0.00 | 0.00 | 62 | 1007.2 |
| 20260506085600 | 68 | 58 | 0.0 | 1.0 | 0.00 | 0.00 | 0.00 | 61 | 1007.3 |
| 20260506085056 | 68 | 67 | 1.0 | 3.0 | 0.00 | 0.00 | 0.00 | 60 | 1007.5 |
| 20260506084553 | 68 | 81 | 1.0 | 2.0 | 0.00 | 0.00 | 0.00 | 60 | 1007.5 |
| 20260506084050 | 67 | 75 | 1.0 | 3.0 | 0.00 | 0.00 | 0.00 | 61 | 1007.3 |
| 20260506083547 | 67 | 61 | 0.0 | 2.0 | 0.00 | 0.00 | 0.00 | 62 | 1007.3 |
| 20260506083044 | 68 | 60 | 0.0 | 0.0 | 0.00 | 0.00 | 0.00 | 62 | 1007.5 |
| 20260506082540 | 68 | 72 | 0.0 | 2.0 | 0.00 | 0.00 | 0.00 | 60 | 1007.3 |
| 20260506082036 | 68 | 43 | 2.0 | 2.0 | 0.00 | 0.00 | 0.00 | 61 | 1007.3 |
| 20260506081535 | 68 | 67 | 0.0 | 1.0 | 0.00 | 0.00 | 0.00 | 60 | 1007.3 |
| 20260506081032 | 68 | 202 | 3.0 | 5.0 | 0.00 | 0.00 | 0.00 | 59 | 1007.2 |
| 20260506080529 | 68 | 69 | 0.0 | 1.0 | 0.00 | 0.00 | 0.00 | 60 | 1007.3 |
| 20260506073513 | 69 | 53 | 0.0 | 1.0 | 0.00 | 0.00 | 0.00 | 57 | 1007.3 |
| 20260506073010 | 69 | 49 | 1.0 | 2.0 | 0.00 | 0.00 | 0.00 | 58 | 1007.6 |
| 20260506072507 | 69 | 52 | 0.0 | 5.0 | 0.00 | 0.00 | 0.00 | 56 | 1007.5 |
| 20260506072005 | 69 | 73 | 1.0 | 1.0 | 0.00 | 0.00 | 0.00 | 56 | 1007.6 |
| 20260506071502 | 69 | 69 | 0.0 | 0.0 | 0.00 | 0.00 | 0.00 | 57 | 1007.7 |
| 20260506070959 | 69 | 129 | 5.0 | 7.0 | 0.00 | 0.00 | 0.00 | 55 | 1007.6 |
| 20260506070456 | 69 | 57 | 1.0 | 2.0 | 0.00 | 0.00 | 0.00 | 55 | 1007.6 |
| 20260506062434 | 69 | 53 | 0.0 | 1.0 | 0.00 | 0.00 | 0.00 | 54 | 1008.1 |
| 20260506061930 | 69 | 55 | 0.0 | 2.0 | 0.00 | 0.00 | 0.00 | 53 | 1008.2 |
| 20260506061426 | 68 | 42 | 2.0 | 3.0 | 0.00 | 0.00 | 0.00 | 53 | 1008.4 |